Погода в Ворсме

Россия / Нижегородская область     55°59′23″N   43°16′19″E
темп.,
°C
ветер,
м/с
пор.,
м/с
влажн.,
%
обл.,
%
осадки,
мм/ч
давл.,
гПа
погр.,
м
30 ноября, вт
вт3000:00+5юв61395100 0.3 995477
03:00+7юв91793100 2.2 988869
06:00+9ююв112188100 3.3 9811330
09:00+10ююз10177992 4.4 9791172
12:00+8ююз91571100 0.2 9811348
15:00+5ююз10176686 0.3 9811671
18:00+2ююз112078100 0.1 9811654
21:00+2ююз132167100 0.4 9801686
1 декабря, ср
ср100:000ююз122075100 0.1 9831602
03:000юз111872100 0.2 9851300
06:00−1юз8137399 0.0 9871180
09:00−1юз6107697 0.1 9881040
12:00−1зюз697097 0.0 9891018
15:00−1зюз6968100 0.0 9891161
18:00−2зюз6107492 0.0 990847
21:00−3зюз6108683 0.1 991888
2 декабря, чт
чт200:00−3зюз61092100 0.6 993875
03:00−5з6992100 1.6 995780
06:00−5з698194 0.3 997809
09:00−7зюз6108497 0.3 1000625
12:00−6зюз6876100 0.0 1002641
15:00−5юз4876100 0.0 1002543
18:00−5ююз497393 0.0 1002415
21:00−4ю4118757 0.0 1001520
3 декабря, пт
пт300:00−3ю51193100 0.1 1000445
03:00−2ююз51296100 0.4 1000412
06:00+1юз71397100 0.1 1001757
09:00+1юз71489100 0.2 1002556
12:00+2юз7138681 0.0 1004736
15:00+2юз51084100 0.0 1006512
18:00−1ю41095100 0.0 1007223
21:00+1ююв61494100 0.1 1005413
4 декабря, сб
сб400:00+3ю81792100 0.1 1002803
03:00+5ю81792100 0.3 1000783
06:00+5ююз91892100 1.1 9981163
09:000з71497100 2.5 1002641
12:000з6117872 0.1 1006829
15:00−2зюз61177100 0.1 1010759
18:00−3зюз51078100 0.0 1012506
21:00−4юз498138 0.0 1014368